Timeline UpdatesTrip UpdatesNews PostsPvt PostsTravel TipsAdmin PostsConv PostsFollowed PostsChat RequestsBlog PostsPNR Posts

Disclaimer
Search
 
 
Thu Oct 2, 2014 01:47:38 ISTHomeTrainsΣChainsAtlasPNRForumGalleryNewsFAQTripsMembersLoginFeedback
No Recent News for this Train
Other Trains in the News **new
Latest...
Will be controlled for 85 minutes between Mughalsarai-Gaya on 3,7,10 July 2014 #1152832
Wed Jul 02, 2014 (03:39PM)
⇐ Return Journey: Train# 53521

53522/Varanasi-Asansol Passenger (UnReserved)

Time-Table HAS CHANGED.
Sep 03 (2:51PM)
Change Departure Station:
Change Arrival Station:
Post a Train Travel TipPost a Train Travel Tip **new
Post a Comment/Question/Picture/VideoPost a Comment/Question/Picture/Video
Pantry/Catering
✕ NO Pantry Car
✕ NO Catering
RSA - Rake Sharing
Rake/Coach Composition
Loco
WAG 7 LDH
News    PNR    Forum    Time-Table    Availability    Fare Chart    Map    Arr/Dep History    Trips    Gallery    ΣChains    X/O    Timeline    
Travel Time: 16h 35m    80 halts    Distance: 480 km    Avg Speed: 28 km/hr
Type: Passenger
Zone: ER/Eastern
Departs @ 04:25 (Avg 8m late)
Platform# 1
SMTWTFS
Varanasi Junction/BSB 
Arrives @ 21:00 (Avg 1h 25m late)
Platform# ???
SMTWTFS
Asansol Junction/ASN 

80 halts. 86 intermediate Stations between Varanasi Junction and Asansol Junction

Show ALL intermediate Stations  Show Old Time-Table

#CodeStation NameX/OArrivesAvgDepartsAvgHaltPFDay#KmSpeedElevZoneAddress
1BSBVaranasi Junction (9)»  -04:25+8110.02782mNRVaranasi 221002, Uttar Pradesh
2KEIKashi (3)  04:37+2504:38+291m--15.32485mNRVaranasi, Uttar Pradesh
3VYNVyasnagar  04:51+2904:52+291m--110.61281mNRNational Highway 2, Uttar Pradesh
4MGSMughal Sarai Junction (8)X  05:20+1105:30+1610m--116.34883mECRMughalsarai 232101, Uttar Pradesh
5GAQGanj Khawaja  05:40 05:41+1:0405:42+1:112 1m--125.15779mECRChandauli Mjhwr, Uttar Pradesh
6CDMRChandauli MajhwarX  05:50 05:51+1:1505:52+1:212 1m--133.77279mECRNational Highway 2, Uttar Pradesh
7SYJSaidrajaX  05:59+1:2306:01+1:262m--142.16280mECRSaiyedraja, Uttar Pradesh
8KMSKaramnasa  06:08 06:09+1:2606:10+1:272 1m--150.35378mECRNational Highway 2, Uttar Pradesh
9DCXDhanaichhaXO  06:16 06:17+1:2706:18+1:282 1m--156.53275mECRNational Highway 2, Bihar
10DGODurgautiX  06:25 06:28+1:2006:27 06:29+1:272 1m--161.92778mECRDistt Kaimur, Bihar
11BBUBhabua Road (4)XO  06:49+1:2506:51 06:50+1:282 1m--170.81680mECR06187-222222, Bihar
12MTGEMuthaniX  06:58 07:10+1:2507:00 07:11+1:282 1m--176.35383mECRNational Highway 2, Bihar
13PSEPusauliX  07:08 07:20+1:2907:10 07:21+1:332 1m--184.26086mECRDistt: Rohtas, Bihar
14KTQKudra (2)XO  07:22 07:30+1:3207:24 07:31+1:372 1m--193.25292mECRKudra, Bihar
15KVDKhurmabad RoadX  07:31 07:39+1:3907:33 07:40+1:392 1m--1100.14193mECRKhurmabad, Bihar
16SSGShiu Sagar RoadXO  07:40 07:47+1:3907:42 07:48+1:382 1m--1104.94299mECRShiu Sagar Rd, Bihar
17KMGEKumahuXO  07:50 07:56+1:3907:52 07:57+1:412 1m--1110.59101mECRKamahu, Bihar
18SSMSasaram Junction (4)  08:05 08:48+1:2408:07 08:49+1:312 1m31118.433111mECR06184-222051, Bihar
19KWDKarwandia  08:13 09:01+1:3908:15 09:02+1:422 1m--1124.950112mECRKarwandiya, Bihar
20PHEPahaleja Halt  08:22 09:10+1:4308:24 09:11+1:432 1m--1131.634112mECRPahaleja, Bihar
21DOSDehri On Sone (6)  08:35 09:19+1:3908:40 09:24+1:435m--1136.149114mECRRohtas(06184-253154), Bihar
22SEBSon Nagar Junction (4)X  08:48 09:31+1:5208:50 09:32+1:562 1m21141.858110mECRBarun, Bihar
23CPBHChiraila  08:57 09:38+1:5608:59 09:39+1:562 1m21147.643104mECRBarun, Bihar
24AUBRAnugraha Narayan Road (4)  09:06 09:46+1:4009:08 09:47+1:422 1m31152.7107104mECR06186-285271, Bihar
25PESPhesar  09:20 09:52+2:0209:22 09:53+2:022 1m21161.619104mECRpheshar, Bihar
26BHKHBaghoi Kusa  09:29 10:07+1:5909:31 10:08+2:002 1m--1166.14998mECRbel Rd, Bihar
27JHNJakhim  10:17 10:16+1:3110:19 10:17+1:382 1m--1172.73893mECRbel Rd, Bihar
28DORDDeo Road  10:25 10:23+1:3710:27 10:24+1:382 1m--1176.453102mECRMaluk Bigha, Bihar
29RFJRafiGanj (4)X  10:45 10:32+5410:47 10:33+562 1m--1183.526102mECRRafiganj, Bihar
30IMGEIsmailpur  10:55 10:54+1:3210:57 10:55+1:402 1m--1192.852114mECRState Highway 69, Bihar
31GRRUGuraru  11:04 11:03+1:4111:06 11:04+1:432 1m21199.645114mECRGuraru, Bihar
32PRYParaiyaO  11:13 11:12+1:4211:15 11:13+1:462 1m--1205.627111mECRparaiya station Rd, Bihar
33KSTAKastha  11:28 11:29+1:4111:30+1:442 1m--1212.736113mECRGaya, Bihar
34GAYAGaya Junction (9)  11:44+1:1511:54+1:1710m21221.117117mECR0631-2220283, Bihar
35MPOManpur Junction (4)  12:13+1:5012:15+2:012m--1226.462113mECRGaya, Bihar
36BNFBandhuaX  12:17 12:22+2:2012:27 12:24+2:1610 2m--1233.646124mECRState Highway 70, Bihar
37TKNTankuppa  12:34+2:1712:36+2:172m--1241.252127mECRState Highway 70, Bihar
38BNSLBansinala Halt  12:43+2:1612:44+2:171m--1247.353135mECRBansinala, Bihar
39PRPPaharpurX  12:51+2:1612:52+2:171m--1253.554150mECRGaya, Bihar
40GAPGurpa (4)  13:05+2:1813:06+2:551m--1265.229192mECRLodhwe, Bihar
41YGMYadugram Block Hut  13:13+3:1413:14+3:141m--1268.536210mECRYadugram Block Hut, Jharkhand
42BSCPBaskatwa B. H. new halt!!  13:22+3:1213:23+3:131m--1273.317273mECRMurli, Bihar
43NGYNath Ganj  13:28+3:3313:29+3:341m--1274.746284mECRMurli, Bihar
44DLWDilwa (2)X  13:37+3:3413:38+3:351m--1280.930346mECRNational Highway 31, Bihar
45LBZLalbag Block HutX  13:47+3:2613:48+3:261m--1285.426389mECRState Highway 70, Bihar
46GJDGujhandi (4)X  13:53+3:4013:54+3:431m--1287.654386mECRNational Highway 31, Jharkhand
47KQRKoderma Junction (7)  14:06 14:05+2:0714:07+2:081 2m--1297.528399mECR06534-222410 Koderma, Jharkhand
48LRBLarabad  14:17+3:4114:18+3:421m--1302.139393mECRJhumri Telaiya, Jharkhand
49HREHirodih (4)  14:25+3:4014:26+3:411m--1306.752374mECRJhumri Telaiya, Jharkhand
50SMNDSarmatanr (4)  14:35+3:3914:36+3:411m--1314.534351mECRKoderma, Jharkhand
51YDDYadudih (2)  14:43+3:4214:44+3:421m--1318.455352mECRNational Highway 2, Jharkhand
52PSBParsabad (4)  14:50+3:4214:51+3:431m--1323.965346mECRNational Highway 2, Jharkhand
53DSMEDasara (2)X  14:57+3:4314:58+3:431m--1330.449342mECRSariya - Parsiya Road, Jharkhand
54CBHChaube (4)O  15:04+3:4315:06+3:442m--1335.312325mECRParsabad, Jharkhand
55KSHRKeshwari  15:27 15:31+3:2715:28 15:32+3:281m--1340.257313mECRMandramo, Jharkhand
56HZDHazaribagh Road (4)  15:34 15:38+3:0415:35 15:39+3:071m--1345.852330mECRHazaribagh, Jharkhand
57GRBHGarea Bihar new halt!!  15:47+3:2115:48+3:221m--1352.817315mECRSariya - Parsiya Rd, Jharkhand
58CCKChichaki (4)  15:50 15:55+3:3015:51 15:56+3:311m--1354.819308mECRNational Highway 2, Jharkhand
59KRMBKarmabad new halt!!  16:00+2:2316:02+2:222m--1356.08323m???Koyridih, Jharkhand
60CDBChaudhribandh (4)XO  16:10+3:2816:12+3:272m--1357.09337mECRMaipatoli, Jharkhand
61CEMEChegroXO  16:42+3:0316:43+3:031m--1361.343333mECRBeko, Jharkhand
62PNMEParasnath (5)  17:03 17:01+2:4017:08 17:03+2:385 2m--1374.338282mECRGiridih 06532-233419, Jharkhand
63NMGNimiaghat (4)  17:15+2:4517:16+2:451m--1381.956268mECRNational Highway 2, Jharkhand
64BLMEBholldih (2)X  17:22+2:4517:23+2:451m--1387.513241mECRGomoh, Jharkhand
65GMONetaji SC Bose Gomoh Junction (6)X  17:45+2:1717:55+2:1510m--1392.452239mECRGomoh, Jharkhand
66MRQMatari (3)  18:06+3:1818:07+3:191m--1401.853246mECRDhanbad, Jharkhand
67NPJENichitpur (2)  18:13+3:2018:14+3:211m--1407.150224mECRKatras, Jharkhand
68TETTetulmari (2)O  18:21+3:2118:22+3:221m--1413.032225mECRTetulmari, Jharkhand
69BHNBhuli (2)  18:32+3:2018:33+3:201m--1418.37230mECRKusunda, Jharkhand
70DHNDhanbad Junction (9)X  19:05+1:2519:15+1:2510m--1422.145235mECR2319801. Div. HQ ECR, Jharkhand
71DOKMDokra Halt (2)  19:22+2:5919:23+2:591m--1427.438211mECRDokra, Jharkhand
72PKAPradhankhunta Junction (3)X  19:29+2:5919:30+3:001m--1431.246202mECRDhanbad, Jharkhand
73CAMChhota Ambana (3)X  19:38+3:0319:39+3:031m--1437.490200mERDhanbad, Jharkhand
74KAOKalubathan (2)  19:45+3:0619:46+3:061m--1446.451195mERDhanbad, Jharkhand
75TNWThapar Nagar (2)X  19:51+3:0719:52+3:071m--1450.753144mERDhanbad, Jharkhand
76MMUMugma (3)  19:58+3:0919:59+3:141m--1456.056135mERNational Highway 2, Jharkhand
77KMMEKumardubi (2)X  20:04+3:1520:05+3:181m--1460.638135mERDhanbad - 828203(06540-222077), Jharkhand
78BRRBarakar (2)O  20:09+3:2020:10+3:211m--1463.149129mERDist. Bardhaman, West Bengal
79ULTKulti (3)X  20:14+3:2220:15+3:221m--1466.412148mERdist - bardhaman, West Bengal
80STNSitarampur Junction (5)X  20:40+3:0420:41+3:081m21471.637139mERG T Rd Before Asansol, West Bengal
81BCQBarachak Junction (4)  20:47+3:1120:48+3:111m--1475.325127mERdist - bardhaman, West Bengal
82ASNAsansol Junction (7)•  21:00+1:25---1480.3-113mERDist - Bardhaman, West Bengal
Scroll to Top
Scroll to Bottom